map of VKO home
Great Circle Mapper logo
VKO - Airport
Location
City:  Moscow, Russian Federation (Russia)
Name:Vnukovo International Airport
ICAO / IATA:UUWW / VKO

Details
Type:Airport (Aerodrome, Airfield)
Use:Public/Civil, International (customs port of entry)
Latitude:5535'30"N (55.591531)
Longitude:3715'41"E (37.261486)
Datum:WGS 1984
Elevation:685 ft (209 m)
Runways:2
Longest:10039 × 197 ft (3060 × 60 m), paved

Time
Time Zone:UTC+3 (DST+4)

Weather
METAR:UUWW 311630Z 34003MPS 9999 BKN017 02/M02 Q1020 24000070 NOSIG
TAF:UUWW 311353Z 3115/0115 32005MPS 3000 BR BKN010
TEMPO 3115/0106 1000 SCT003
TEMPO 0106/0112 1400 SHRASN BKN007 SCT015CB

Related Locations
Nearby:
Farthest:CHT: 10743 mi / 17289 km
Waitangi [Tuuta], Chatham Islands, NZ

Find:

   beyond  
but within

Other Information
Maps:
NOTAMs:
Links:
Sources:

  
flag of Russian Federation (Russia)
flag of Moscow
  

Airport Diagram

Airport diagram for VKO

Airport diagram (OBSOLETE) from NGA

Sectional Chart

Flight Planning
at skyvector.com

Satellite Image

Google Maps Satellite View

 

Copyright © 2004-2014 Karl L. Swartz. All rights reserved.
The Great Circle Mapper name and logo are trademarks of the Great Circle Mapper.
All other trademarks mentioned herein belong to their respective owners.
Please see credits for attibutions and further copyright information.

  Follow gcmap on Facebook Follow gcmap on Twitter

hCard Microformat

Geo Microformat